Weather History for KPEQ - March, 2013

Change the Weather History Date:

Friday, March 15, 2013

  Actual Average Record
Temperature  
Mean Temperature 62 °F -  
Max Temperature 89 °F 77 °F 95 °F (1972)
Min Temperature 35 °F 37 °F 23 °F (1962)
Degree Days  
Heating Degree Days 3    
Growing Degree Days 12 (Base 50)    
Moisture  
Dew Point 24 °F    
Average Humidity 33    
Maximum Humidity 61    
Minimum Humidity 9    
Precipitation  
Precipitation 0.00 in - - ()
Sea Level Pressure  
Sea Level Pressure 30.03 in    
Wind  
Wind Speed 5 mph (WSW)    
Max Wind Speed 15 mph    
Max Gust Speed 21 mph    
Visibility 10 miles    
Events      
Averages and records for this station are not official NWS values.
T = Trace of Precipitation, MM = Missing Value Source: NWS Daily Summary

Daily Weather History Graph

Daily Weather History Graph

Search for Another Location

Airport or City:

Trip Planner

Search our weather history database for the weather conditions in past years. The results will help you decide how hot, cold, wet, or windy it might be!

Date:

Astronomy

Mar. 15, 2013 Rise Set
Actual Time 8:03 AM CDT 8:02 PM CDT
Civil Twilight 7:39 AM CDT 8:26 PM CDT
Nautical Twilight 7:11 AM CDT 8:54 PM CDT
Astronomical Twilight 6:43 AM CDT 9:23 PM CDT
Moon 10:12 AM CDT (3/15) No Moon Set
Length of Visible Light 12h 47m
Length of Day
11h 58m
Waxing Crescent, 15% of the Moon is Illuminated
Mar 15
Waxing Crescent
Mar 19
First Quarter
Mar 27
Full
Apr 2
Last Quarter
Apr 10
New

Hourly Weather History & Observations

Time (CDT) Temp. Windchill Dew Point Humidity Pressure Visibility Wind Dir Wind Speed Gust Speed Precip Events Conditions
12:15 AM 59.9 °F - 30.7 °F 33% 30.15 in 10.0 mi SE 9.2 mph - N/A   Clear
12:35 AM 57.7 °F - 30.4 °F 35% 30.15 in 10.0 mi SE 6.9 mph - N/A   Clear
12:55 AM 55.4 °F - 30.0 °F 38% 30.14 in 10.0 mi SE 4.6 mph - N/A   Clear
1:15 AM 55.8 °F - 30.2 °F 38% 30.14 in 10.0 mi Calm Calm - N/A   Clear
1:35 AM 55.2 °F - 29.5 °F 37% 30.14 in 10.0 mi Calm Calm - N/A   Clear
1:55 AM 48.0 °F - 27.0 °F 44% 30.13 in 10.0 mi Calm Calm - N/A   Clear
2:15 AM 48.9 °F - 27.0 °F 43% 30.13 in 10.0 mi Calm Calm - N/A   Clear
2:35 AM 46.2 °F - 27.5 °F 48% 30.13 in 10.0 mi Calm Calm - N/A   Clear
2:55 AM 46.6 °F - 26.1 °F 45% 30.13 in 10.0 mi Calm Calm - N/A   Clear
3:15 AM 44.4 °F 42.0 °F 24.4 °F 45% 30.12 in 10.0 mi WSW 4.6 mph - N/A   Clear
3:35 AM 43.9 °F 42.3 °F 23.9 °F 45% 30.12 in 10.0 mi WNW 3.5 mph - N/A   Clear
4:15 AM 43.3 °F - 25.2 °F 49% 30.11 in 10.0 mi Calm Calm - N/A   Clear
4:35 AM 41.4 °F - 24.1 °F 50% 30.10 in 10.0 mi Calm Calm - N/A   Clear
4:55 AM 39.4 °F 34.5 °F 22.6 °F 51% 30.10 in 10.0 mi West 6.9 mph - N/A   Clear
5:15 AM 37.9 °F 33.5 °F 21.9 °F 53% 30.10 in 10.0 mi West 5.8 mph - N/A   Clear
5:35 AM 39.6 °F 34.0 °F 23.2 °F 52% 30.10 in 10.0 mi West 8.1 mph - N/A   Clear
5:55 AM 38.8 °F 34.6 °F 24.4 °F 56% 30.11 in 10.0 mi WNW 5.8 mph - N/A   Clear
6:15 AM 39.2 °F 37.0 °F 25.5 °F 58% 30.11 in 10.0 mi NW 3.5 mph - N/A   Clear
6:35 AM 39.2 °F 33.6 °F 25.3 °F 58% 30.11 in 10.0 mi NW 8.1 mph - N/A   Clear
6:55 AM 39.2 °F 35.0 °F 24.6 °F 56% 30.11 in 10.0 mi NNW 5.8 mph - N/A   Clear
7:15 AM 38.7 °F 34.3 °F 23.9 °F 55% 30.12 in 10.0 mi NNW 5.8 mph - N/A   Clear
7:35 AM 37.2 °F 32.6 °F 23.9 °F 59% 30.12 in 10.0 mi NW 5.8 mph - N/A   Clear
8:15 AM 35.2 °F 31.2 °F 23.0 °F 61% 30.12 in 10.0 mi SW 4.6 mph - N/A   Clear
8:35 AM 36.9 °F 32.2 °F 24.3 °F 60% 30.12 in 10.0 mi West 5.8 mph - N/A   Clear
8:55 AM 39.4 °F 37.2 °F 25.5 °F 58% 30.12 in 10.0 mi West 3.5 mph - N/A   Clear
9:15 AM 43.5 °F 41.9 °F 28.9 °F 56% 30.13 in 10.0 mi WNW 3.5 mph - N/A   Clear
9:35 AM 47.3 °F - 32.0 °F 55% 30.13 in 10.0 mi Calm Calm - N/A   Clear
10:55 AM 57.9 °F - 32.7 °F 39% 30.12 in 10.0 mi Calm Calm - N/A   Clear
1:55 PM 82.9 °F - 27.0 °F 13% 30.03 in 10.0 mi SE 3.5 mph - N/A   Clear
2:15 PM 85.1 °F - 26.2 °F 12% 30.01 in 10.0 mi South 3.5 mph - N/A   Clear
2:35 PM 85.6 °F - 26.4 °F 12% 29.99 in 10.0 mi SSW 10.4 mph - N/A   Clear
2:55 PM 86.9 °F - 26.1 °F 11% 29.98 in 10.0 mi SSE 6.9 mph - N/A   Clear
3:35 PM 87.4 °F - 26.1 °F 11% 29.95 in 10.0 mi Calm Calm - N/A   Clear
4:15 PM 89.1 °F - 24.8 °F 10% 29.93 in 10.0 mi West 11.5 mph 16.1 mph N/A   Clear
4:55 PM 89.1 °F - 23.9 °F 9% 29.91 in 10.0 mi SW 11.5 mph 20.7 mph N/A   Clear
5:15 PM 89.2 °F - 24.4 °F 10% 29.91 in 10.0 mi West 13.8 mph 17.3 mph N/A   Clear
5:35 PM 89.2 °F - 24.4 °F 10% 29.91 in 10.0 mi West 15.0 mph 19.6 mph N/A   Clear
6:15 PM 88.7 °F - 23.0 °F 9% 29.90 in 10.0 mi WSW 12.7 mph - N/A   Clear
6:35 PM 87.8 °F - 22.6 °F 9% 29.89 in 10.0 mi WSW 8.1 mph 11.5 mph N/A   Clear
6:55 PM 87.1 °F - 22.1 °F 9% 29.89 in 10.0 mi West 9.2 mph - N/A   Clear
7:55 PM 81.1 °F - 24.6 °F 13% 29.88 in 10.0 mi SW 3.5 mph - N/A   Clear
8:15 PM 74.5 °F - 23.0 °F 15% 29.88 in 10.0 mi SSW 8.1 mph - N/A   Clear
8:55 PM 69.1 °F - 19.2 °F 15% 29.89 in 10.0 mi SSW 6.9 mph - N/A   Clear
9:15 PM 65.3 °F - 18.1 °F 16% 29.89 in 10.0 mi SSW 9.2 mph - N/A   Clear
9:55 PM 60.6 °F - 17.6 °F 19% 29.89 in 10.0 mi SW 8.1 mph - N/A   Clear
10:15 PM 60.1 °F - 17.1 °F 19% 29.89 in 10.0 mi SW 10.4 mph - N/A   Clear
10:35 PM 61.7 °F - 17.2 °F 18% 29.89 in 10.0 mi WSW 8.1 mph - N/A   Clear
10:55 PM 61.9 °F - 16.5 °F 17% 29.90 in 10.0 mi ESE 8.1 mph - N/A   Clear
11:15 PM 56.5 °F - 15.6 °F 20% 29.90 in 10.0 mi SSE 5.8 mph - N/A   Clear
11:35 PM 56.3 °F - 17.1 °F 22% 29.90 in 10.0 mi SSE 6.9 mph - N/A   Clear
11:55 PM 54.9 °F - 17.4 °F 23% 29.90 in 10.0 mi South 6.9 mph - N/A   Clear